Flag for Grenada Weather past 2 weeks in Saint George's, Grenada

Now
79 °F

Partly cloudy.


Feels Like: 83 °F
Forecast: 76 / 82 °F
Wind: 12 mph from East

Location: Point Salines Airport

Current Time: May 29, 2015 at 5:33:32 AM

Latest Report: May 29, 2015 at 5:00 AM


Visibility: N/A

Pressure: 29.89 "Hg

Humidity: 94%

Dew point: 77 °F

Location of Saint George'sLocation

Historic Weather in Saint George's — Graph

°F

Saint George's temperature yesterday

Maximum temperature yesterday: 86 °F (at 11:00 AM)
Minimum temperature yesterday: 79 °F (at 3:00 AM)
Average temperature yesterday: 82 °F

Past Weeks' High & Low Weather Summary

 TemperatureHumidityPressure
High88 °F (May 17, 2:00 PM)94% (May 14, 5:00 AM)30.07 "Hg (May 14, 5:00 AM)
Low77 °F (May 14, 8:00 AM)59% (May 24, 1:00 PM)29.86 "Hg (May 27, 5:00 PM)
Average82 °F79%29.96 "Hg
* Reported May 14 4:00 AM — May 29 4:00 AM, Saint George's, Weather by CustomWeather, © 2015

Note: Actual official high and low records may vary slightly from our data, if they occured in-between our weather recording intervals... More about our weather records

Advertising

Saint George's weather history for previous 24 hours

 ConditionsComfort  
Time TempWeatherWind HumidityBarometerVisibility
4:00 AM
Fri, May 29
79 °FPassing clouds.12 mph89%29.89 "HgN/A
3:00 AM79 °FPassing clouds.10 mph89%29.89 "HgN/A
2:00 AM79 °FLight rain. Passing clouds.12 mph89%29.89 "HgN/A
1:00 AM79 °FLight rain. Partly cloudy.8 mph94%29.92 "HgN/A
12:00 AM77 °FLight rain. Passing clouds.10 mph94%29.95 "HgN/A
11:00 PM
Thu, May 28
79 °FLight rain. Passing clouds.8 mph94%29.95 "HgN/A
10:00 PM79 °FLight rain. Passing clouds.7 mph94%29.95 "HgN/A
9:00 PM81 °FPassing clouds.7 mph89%29.95 "HgN/A
8:00 PM79 °FPartly cloudy.7 mph94%29.92 "HgN/A
7:00 PM81 °FPartly cloudy.8 mph89%29.89 "HgN/A
6:00 PM81 °FSprinkles. Scattered clouds.8 mph89%29.89 "HgN/A
5:00 PM82 °FPartly sunny.9 mph79%29.86 "HgN/A
4:00 PM81 °FPartly sunny.12 mph84%29.86 "HgN/A
3:00 PM84 °FSprinkles. Partly sunny.12 mph79%29.89 "Hg5 mi
2:00 PM86 °FScattered clouds.12 mph75%29.89 "HgN/A
1:00 PM86 °FScattered clouds.14 mph75%29.92 "HgN/A
12:00 PM84 °FScattered clouds.14 mph84%29.92 "HgN/A
11:00 AM86 °FScattered clouds.14 mph79%29.95 "HgN/A
10:00 AM84 °FPassing clouds.14 mph74%29.95 "HgN/A
9:00 AM82 °FScattered clouds.14 mph84%29.95 "HgN/A
8:00 AM81 °FScattered clouds.9 mph89%29.95 "Hg5 mi
7:00 AM79 °FRain showers. Partly sunny.7 mph94%29.92 "Hg5 mi
6:00 AM81 °FScattered clouds.7 mph84%29.89 "HgN/A
5:00 AM81 °FPassing clouds.8 mph84%29.89 "HgN/A
Weather by CustomWeather, © 2015

See weather overviewHow to use our weather pages